STARLINK-11282 [DTC] (60992 NORAD) Tracking and Keplerian Element Data

This shows tracking and keplerian element data for the satellite.

Feedback or suggestion? Click here.




ElementValue
Catalog60992
NameSTARLINK-11282 [DTC]
Epoch Orbit604
Epoch Day286.91668981
Epoch Year2024
RAAN289.0096
Inclination53.1587
Eccentricity0.0001238
Argument of Perigee93.0477
Mean Anonmoly74.7818
Mean Motion15.69748374
Decay Rate-0.00051599
L11 60992U 24158C 24286.91668981 -.00051599 00000+0 -42300-3 0 9998
L22 60992 53.1587 289.0096 0001238 93.0477 74.7818 15.69748374 6044



Live tracking and technical data element details for STARLINK-11282 [DTC] (NORAD 60992). STARLINK-11282 [DTC] can be tracked NOW for your location showing map with azimuth and elevation plus other details from your city location.







IsCatalogInMostPopularTable: catalog: 60992, numindb: 9
Update: records affected: 1



GetName: 60992 STARLINK-11282 [DTC]

Hit Count: updated at: Wed, 04 Dec 2024 17:51:26 GMT